Henrik Krøyer Holme

KL  EN  DA
ASIAQ
Weather Now GREENLAND SURVEY
Updated [WGT/WGST] Temperature [°C] Wind [m/s] Air pressure [hPa] Relative humidity [%] Precipitation [mm]
Present Wind chill Speed Max
05.09 08:00-4,10,01,0 ⇐1,0100498n/a
05.09 07:00-4,40,01,0 ⇐1,0100498n/a
05.09 06:00-4,50,01,0 ⇐2,0100498n/a
05.09 05:00-4,6-7,12,0 ⇐2,0100498n/a
05.09 04:00-4,50,01,0 ⇐2,0100498n/a
05.09 03:00-4,7-7,22,0 ⇐2,0100498n/a
05.09 02:00-5,10,01,0 ⇐1,0100598n/a
05.09 01:00-5,20,01,0 ⇐1,0100597n/a
05.09 00:00-5,30,01,0 ⇖1,0100597n/a
04.09 23:00-5,30,01,0 ⇑1,0100597n/a
04.09 22:00-4,7-8,02,0 ⇖2,0100698n/a
04.09 21:00-4,60,01,0 ⇖2,0100698n/a
04.09 20:00-4,20,01,0 ⇗2,0100698n/a
04.09 19:00-4,1-6,52,0 ⇗2,0100798n/a
04.09 18:00-4,4-9,44,0 ⇗4,0100798n/a
04.09 17:00-3,8-9,04,0 ⇗5,0100798n/a
04.09 16:00-3,6-8,84,0 ⇗5,0100898n/a
04.09 15:00-3,4-8,64,0 ⇗5,0100898n/a
04.09 14:00-3,1-8,55,0 ⇗6,0100897n/a
04.09 13:00-3,1-8,24,0 ⇗5,0100998n/a
04.09 12:00-3,1-7,84,0 ⇗5,0100998n/a
04.09 11:00-2,9-7,94,0 ⇗6,0100995n/a
04.09 10:00-3,1-5,42,0 ⇗2,0101095n/a
04.09 09:00-3,4-5,72,0 ⇒3,0101096n/a
04.09 08:00-3,2-5,52,0 ⇗2,0101095n/a
Position: (80.649444,-13.711944)

[Back]